Location: La Brionne
(46.1728°N, 1.7849°E)
Time: 00:49:59
(UTC+00:00)

Cosmos 2237 Rocket - Visible Passes

Search period start: 17 October 2021 00:00
Search period end: 27 October 2021 00:00
Orbit: 833 x 851 km, 71.0° (Epoch: 16 October)

Date Brightness Start Highest point End Pass type
(mag) Time Alt. Az. Time Alt. Az. Time Alt. Az.
17 Oct 4.8 05:13:07 10° NNE 05:15:09 12° NE 05:17:10 10° NE visible
18 Oct 4.8 04:58:25 10° NNE 05:00:13 11° NNE 05:02:00 10° NE visible
19 Oct 4.9 04:43:44 10° NNE 04:45:16 11° NNE 04:46:49 10° NE visible
20 Oct 4.9 04:29:05 10° NNE 04:30:20 11° NNE 04:31:35 10° NE visible
21 Oct 5.0 04:14:33 10° NNE 04:15:24 10° NNE 04:16:14 10° NE visible
22 Oct 3.6 05:40:57 10° NNW 05:46:16 39° NE 05:51:33 10° ESE visible
23 Oct 3.7 05:26:06 10° NNW 05:31:23 37° NE 05:36:36 10° ESE visible
24 Oct 3.7 05:11:15 10° NNW 05:16:29 36° NE 05:21:40 10° ESE visible
25 Oct 3.8 04:56:23 10° NNW 05:01:35 35° NE 05:06:43 10° ESE visible
26 Oct 3.8 04:41:32 10° NNW 04:46:41 33° NE 04:51:46 10° ESE visible
